STARLINK-1191, 45222

Orbit data source: Space-Track

STARLINK-1191, 45222 is a payload satellite owned by SpaceX/Seattle (US) in LEO that was launched on Mon, 17 Feb 2020 UTC via an FALCON 9 launch vehicle from the Air Force Eastern Test Range (AFETR). Payload-class satellites include a variety of spacecraft equipped with specific instruments for various scientific and technological missions. These include communications satellites like Starlink; space stations such as the ISS; scientific satellites like the Hubble; Earth observation satellites from companies like Planet Labs, Umbra, and HawkEye 360; GPS; miniature CubeSats for education and research; and military/defense satellites.

Loading next visibility...
Identifier
45222, 2020-012AW
Orbit
LEO
Country
Flag of USUS
Related business
Manufacturer
SpaceX/Seattle
Mission
Partially operational Commercial Communications
Bus & Motor
STARLINK, Unknown motor
Mass
260 kg wet, ~248 kg dry
Launch date (UTC)
2020-02-17 (7 years ago)
Launch vehicle
FALCON 9
Launch site
Air Force Eastern Test Range (AFETR)
Object type
Payload
Rocket body
Debris
Shape & HBR
Box + 1 Pan, 10.1 m
Radar Cross Section
13.562 m², Large (>1 m²)

Expand to show TLE details & history
Last TLE update: 3 days ago

TLE from 3 days ago
0 STARLINK-1191
1 45222U 20012AW  26250.92039467  .00062556  00000-0  10382-2 0  9995
2 45222  53.1497 220.4576 0001162  97.0120 263.1022 15.51548150363587
Epoch: 2026-09-07T22:05Z
TLE epoch observation values (Epoch: 2026-09-07T22:05:22.099Z)
Latitude
-0.00003°
Longitude
-97.87874°
Altitude
413.207 km
Speed
7.664 km/s
True Right ascension
14h 41m 49s
True Declination
0° 00' 00"
Sunlit
Object was in daylight at epoch
Visualization orbit readout
Latitude
Unknown
Longitude
Unknown
Altitude
Unknown
Speed
Unknown
Apparent Right ascension
Unknown
Apparent Declination
Unknown
Sunlit
N/A
Visualization observer readout
Local Sidereal Time
21:29:15
Azimuth
Unknown
Elevation
Unknown
Doppler factor
Unknown
Orbital elements
Apogee altitude
413.255 km
Perigee altitude
411.677 km
Semi-major axis
6,790.603 km
Eccentricity
0.00012
Inclination
53.1497°
RAAN
220.4576°
Arg. of periapsis
97.012°
True anomaly
263.08898°
Mean anomaly
263.1022°
Eccentric anomaly
263.09559°
Mean motion
3.87865 °/min
Orbital period
92.82 mins
BSTAR
0.0010382
Loading maneuver chart data...
Computing Atmospheric mass density...

Documentation

Showing up to 5 results
|